Fairfield, OH

11:18 AM EST on February 22, 2017 (GMT -0500)
Butler County Regional

Weather History for KHAO - February, 2013

Change the Weather History Date:

Sunday, February 10, 2013

  Actual Average (KLUK) Record (KLUK)
Temperature  
Mean Temperature 40 °F -  
Max Temperature 55 °F 40 °F 68 °F (1959)
Min Temperature 25 °F 21 °F -1 °F (1982)
Degree Days  
Heating Degree Days 25    
Moisture  
Dew Point 31 °F    
Average Humidity 63    
Maximum Humidity 87    
Minimum Humidity 35    
Precipitation  
Precipitation 0.02 in - - ()
Sea Level Pressure  
Sea Level Pressure 30.03 in    
Wind  
Wind Speed 4 mph (SSE)    
Max Wind Speed 12 mph    
Max Gust Speed 22 mph    
Visibility 10 miles    
Events Rain    
Averages and records for this station are not official NWS values.
T = Trace of Precipitation, MM = Missing Value Source: NWS Daily Summary

Daily Weather History Graph

Daily Weather History Graph

Search for Another Location

Airport or City:

Trip Planner

Search our weather history database for the weather conditions in past years. The results will help you decide how hot, cold, wet, or windy it might be!

Date:

Astronomy

Feb. 10, 2013 Rise Set
Actual Time 7:35 AM EST 6:09 PM EST
Civil Twilight 7:07 AM EST 6:37 PM EST
Nautical Twilight 6:36 AM EST 7:08 PM EST
Astronomical Twilight 6:05 AM EST 7:40 PM EST
Moon 7:25 AM EST (2/10) 6:58 PM EST (2/10)
Length of Visible Light 11h 29m
Length of Day
10h 33m
New Moon, 0% of the Moon is Illuminated
Feb 10
New Moon
Feb 17
First Quarter
Feb 25
Full
Mar 4
Last Quarter
Mar 11
New

Hourly Weather History & Observations

Time (EST) Temp. Windchill Dew Point Humidity Pressure Visibility Wind Dir Wind Speed Gust Speed Precip Events Conditions
12:53 AM 25.0 °F 20.7 °F 19.0 °F 78% 30.25 in 10.0 mi East 3.5 mph - N/A   Clear
1:53 AM 30.0 °F - 21.0 °F 69% 30.24 in 10.0 mi Calm Calm - N/A   Clear
2:53 AM 28.0 °F - 21.0 °F 75% 30.23 in 10.0 mi Calm Calm - N/A   Clear
3:53 AM 30.9 °F 27.5 °F 21.9 °F 69% 30.21 in 10.0 mi ENE 3.5 mph - N/A   Clear
4:53 AM 33.1 °F - 23.0 °F 66% 30.20 in 10.0 mi Calm Calm - N/A   Mostly Cloudy
5:53 AM 32.0 °F - 24.1 °F 73% 30.19 in 10.0 mi Calm Calm - N/A   Mostly Cloudy
6:53 AM 35.1 °F - 21.9 °F 59% 30.19 in 10.0 mi Calm Calm - N/A   Clear
7:53 AM 34.0 °F - 23.0 °F 64% 30.19 in 10.0 mi Calm Calm - N/A   Clear
8:53 AM 36.0 °F - 23.0 °F 59% 30.16 in 10.0 mi Calm Calm - N/A   Overcast
9:53 AM 39.0 °F - 23.0 °F 53% 30.15 in 10.0 mi Calm Calm - N/A   Overcast
10:53 AM 41.0 °F 37.1 °F 25.0 °F 53% 30.14 in 10.0 mi SE 5.8 mph - N/A   Overcast
11:53 AM 45.0 °F 41.8 °F 26.1 °F 48% 30.09 in 10.0 mi ESE 5.8 mph - N/A   Overcast
12:53 PM 52.0 °F - 27.0 °F 38% 30.03 in 10.0 mi South 9.2 mph - N/A   Overcast
1:53 PM 54.0 °F - 27.0 °F 35% 29.96 in 10.0 mi SSE 9.2 mph 18.4 mph N/A   Clear
2:53 PM 55.0 °F - 28.0 °F 35% 29.97 in 10.0 mi Variable 4.6 mph - N/A   Overcast
3:53 PM 55.9 °F - 28.9 °F 36% 29.94 in 10.0 mi South 6.9 mph - N/A   Scattered Clouds
4:53 PM 55.0 °F - 30.0 °F 38% 29.92 in 10.0 mi Variable 4.6 mph - 0.00 in Rain Light Rain
5:53 PM 51.1 °F - 41.0 °F 68% 29.90 in 10.0 mi South 6.9 mph 18.4 mph 0.02 in Rain Light Rain
6:53 PM 51.1 °F - 42.1 °F 71% 29.89 in 10.0 mi Variable 6.9 mph 18.4 mph 0.00 in   Overcast
7:16 PM 50.0 °F - 42.8 °F 76% 29.86 in 10.0 mi SSE 8.1 mph 16.1 mph N/A   Overcast
7:53 PM 50.0 °F - 43.0 °F 77% 29.86 in 10.0 mi South 11.5 mph 21.9 mph N/A   Overcast
8:53 PM 50.0 °F - 42.1 °F 74% 29.85 in 10.0 mi Variable 6.9 mph 19.6 mph N/A   Overcast
9:53 PM 50.0 °F - 42.1 °F 74% 29.85 in 10.0 mi South 10.4 mph 17.3 mph N/A   Overcast
10:53 PM 48.9 °F - 43.0 °F 80% 29.82 in 10.0 mi South 6.9 mph - N/A   Overcast
11:33 PM 48.2 °F - 44.6 °F 87% 29.81 in 8.0 mi South 5.8 mph - N/A   Overcast
11:53 PM 48.9 °F - 45.0 °F 86% 29.82 in 10.0 mi Variable 4.6 mph - N/A   Overcast